[[{"header":{"parameterUnit":"m.s-1","parameterCategory":1,"la1":30.2991,"la2":30.254,"lo1":-89.0895,"lo2":-89.0444,"dy":0.0017,"dx":0.0017,"nx":28,"ny":28,"refTime":"2023-09-21T03:00:00:Z","depth":0,"parameterNumber":2,"parameterNumberName":"U-component_of_WINDS"},"data":[0,0,0,0,0,0,0,0,0,0,0,0,0,0,0,0,0,0,0,0,0,0,0,0,0,0,0,0,0,0,0,0,0,0,0,0,0,0,0,0,0,0,0,0,0,0,0,0,0,0,0,0,0,0,0,0,0,0,-6.5656,-6.5656,0,-6.5712,-6.5713,-6.5714,-6.5543,-6.5537,-6.5532,-6.5527,-6.5584,-6.559,-6.5597,0,0,0,0,0,0,0,0,0,0,0,0,0,-6.5399,-6.5405,-6.5655,-6.5656,-6.5657,-6.5712,-6.5713,-6.5714,-6.5544,-6.5537,-6.5531,-6.5525,-6.5582,-6.5589,-6.5597,0,0,0,0,0,0,0,0,0,0,0,0,0,-6.5489,-6.5406,-6.5655,-6.5579,-6.5572,-6.5712,-6.5713,-6.5714,-6.5545,-6.5537,-6.5529,-6.5522,-6.5579,-6.5589,-6.5598,-6.5814,0,0,-6.5627,-6.5632,0,0,0,0,0,0,0,0,-6.5484,-6.5498,-6.5589,-6.5584,-6.5577,-6.5612,-6.5643,-6.5747,-6.5547,-6.5555,-6.5527,-6.5518,-6.56,-6.5607,-6.5635,-6.5817,-6.5819,-6.5628,-6.5634,-6.5638,-6.5641,0,0,0,0,0,0,0,-6.5478,-6.5495,-6.5678,-6.5591,-6.5584,-6.5541,-6.5545,-6.5662,-6.5621,-6.5554,-6.5542,-6.5551,-6.5595,-6.5626,-6.5635,-6.582,-6.5628,-6.5637,-6.5642,-6.5646,-6.6181,-6.6189,0,0,0,0,0,0,-6.5482,-6.5491,-6.5676,-6.5679,-6.551,-6.5552,-6.5557,-6.5609,-6.5619,-6.5613,-6.5558,-6.5543,-6.5614,-6.5624,-6.5636,-6.5888,-6.5638,-6.5647,-6.5653,-6.6173,-6.6183,-6.6192,0,0,0,0,0,0,-6.5477,-6.55,-6.5674,-6.5582,-6.5601,-6.5565,-6.5625,-6.5614,-6.5645,-6.5622,-6.5613,-6.5597,-6.5608,-6.5623,-6.5771,-6.5887,-6.5651,-6.566,-6.6163,-6.6176,-6.6187,-6.6394,0,0,0,0,0,0,-6.547,-6.5499,-6.5581,-6.5585,-6.5606,-6.5808,-6.5632,-6.5621,-6.5662,-6.5643,-6.5656,-6.5651,-6.5603,-6.5758,-6.5781,-6.5896,-6.5668,-6.6152,-6.6168,-6.6183,-6.6376,-6.6412,-6.6442,0,0,0,0,0,-6.5462,-6.5636,-6.5586,-6.5609,-6.5708,-6.5815,-6.5827,-6.5768,-6.5672,-6.5754,-6.5739,-6.5651,-6.5872,-6.5774,-6.5799,-6.5919,-6.6144,-6.6164,-6.6182,-6.6361,-6.6405,-6.6442,0,0,0,0,0,0,-6.5645,-6.5635,-6.5579,-6.576,-6.579,-6.5786,-6.5886,-6.5817,-6.5873,-6.5853,-6.5778,-6.5783,-6.5944,-6.5947,-6.5838,-6.6128,-6.5991,-6.6016,-6.612,-6.6161,-6.6193,-6.6187,-6.5676,0,0,0,0,0,-6.5707,-6.5796,-6.5782,-6.5944,-6.5962,-6.5923,-6.5967,-6.592,-6.5947,-6.5958,-6.5954,-6.5984,-6.6059,-6.6111,-6.618,-6.6378,-6.6377,-6.6473,-6.6506,-6.6533,-6.6554,-6.6657,-6.6699,-6.6254,-6.6254,-6.6254,0,0,-6.5835,-6.5841,-6.5901,-6.5981,-6.5998,-6.609,-6.5934,-6.6038,-6.6106,-6.5974,-6.6112,-6.6112,-6.614,-6.6314,-6.639,-6.6321,-6.6678,-6.6557,-6.6579,-6.6585,-6.6681,-6.6723,-6.6761,-6.6267,-6.6265,-6.6263,0,0,-6.6114,-6.6129,-6.6264,-6.6285,-6.6314,-6.6287,-6.6321,-6.6328,-6.6322,-6.6461,-6.6364,-6.6444,-6.6577,-6.66,-6.663,-6.6923,-6.6842,-6.6948,-6.7118,-6.722,-6.7255,-6.7285,-6.7387,-6.7425,-6.6969,-6.697,-6.697,0,-6.6269,-6.6405,-6.6342,-6.6454,-6.6491,-6.6378,-6.6514,-6.6538,-6.6588,-6.6616,-6.6539,-6.6704,-6.6715,-6.6891,-6.6963,-6.6992,-6.7026,-6.6943,-6.7255,-6.7285,-6.7313,-6.7409,-6.7447,-6.6982,-6.6981,-6.6979,-6.6978,0,-6.6592,-6.6689,-6.6794,-6.6846,-6.6896,-6.7019,-6.6975,-6.7034,-6.6984,-6.6966,-6.7108,-6.7119,-6.7187,-6.7227,-6.7179,-6.7398,-6.7353,-6.7268,-6.7128,-6.7368,-6.7457,-6.7494,-6.7,-6.6995,-6.6992,-6.6989,0,0,-6.6983,-6.7002,-6.7041,-6.7063,-6.7088,-6.7161,-6.728,-6.7348,-6.7398,-6.7438,-6.7534,-6.7652,-6.7572,-6.7606,-6.756,-6.7651,-6.7879,-6.7553,-6.7552,-6.761,-6.8118,-6.8179,-6.8223,-6.7829,-6.7835,-6.7841,-6.8114,0,-6.7256,-6.7458,-6.7407,-6.7609,-6.7696,-6.7592,-6.7695,-6.7722,-6.771,-6.7782,-6.7768,-6.785,-6.7741,-6.7761,-6.7846,-6.7833,-6.7979,-6.7813,-6.7915,-6.7919,-6.7906,-6.8269,-6.8334,-6.8591,-6.8149,-6.8155,-6.8159,0,-6.7599,-6.7652,-6.7863,-6.7874,-6.7909,-6.8002,-6.806,-6.8132,-6.816,-6.8145,-6.8185,-6.8122,-6.8239,-6.8103,-6.8263,-6.8151,-6.8191,-6.8192,-6.82,-6.8203,-6.805,-6.8279,-6.8672,-6.871,-6.8214,-6.8209,-6.8205,0,-6.7859,-6.7984,-6.8125,-6.8148,-6.8166,-6.8234,-6.8244,-6.8266,-6.831,-6.8362,-6.8389,-6.8455,-6.849,-6.8542,-6.8498,-6.8404,-6.8664,-6.8525,-6.8653,-6.8654,-6.8707,-6.8704,-6.9109,-6.8742,-6.8741,-6.874,-6.874,0,-6.8165,-6.8297,-6.8242,-6.8329,-6.8473,-6.8415,-6.856,-6.8558,-6.8579,-6.8663,-6.858,-6.866,-6.86,-6.8676,-6.8644,-6.8779,-6.8797,-6.8786,-6.8775,-6.8791,-6.8792,-6.8812,-6.8791,-6.8751,-6.8748,-6.8746,-6.8745,0,-6.8476,-6.8446,-6.8592,-6.8599,-6.8604,-6.871,-6.8714,-6.8795,-6.8778,-6.8886,-6.8908,-6.8881,-6.8966,-6.8929,-6.9019,-6.8997,-6.9171,-6.9138,-6.9161,-6.915,-6.9279,-6.9266,-6.9707,-6.9761,-6.9364,-6.9368,-6.9371,0,-6.8671,-6.877,-6.8788,-6.8838,-6.8855,-6.8938,-6.8983,-6.8931,-6.8981,-6.9023,-6.9099,-6.9177,-6.9236,-6.9378,-6.9365,-6.9434,-6.94,-6.955,-6.9409,-6.9422,-6.9397,-6.939,-6.9398,-6.9576,-6.9581,-6.9585,-6.9588,0,-6.9019,-6.8999,-6.9068,-6.9132,-6.9189,-6.9237,-6.9278,-6.9324,-6.9274,-6.9335,-6.9421,-6.9468,-6.9561,-6.9639,-6.97,-6.971,-6.9641,-6.9634,-6.9666,-6.968,-6.9687,-6.9681,-6.9233,-6.9622,-6.9619,-6.9616,-6.9614,-6.9613,-6.9275,-6.9357,-6.9383,-6.9462,-6.9488,-6.9529,-6.9604,-6.9598,-6.9669,-6.974,-6.9706,-6.9806,-6.9834,-6.9909,-6.993,-7.0007,-6.9947,-6.9996,-7.0007,-7.0018,-7.0033,-6.9681,-7.0019,-7.0018,-7.0017,-7.0016,-7.0015,0,-6.9614,-6.9626,-6.97,-6.976,-6.9823,-6.9756,-6.9798,-6.9854,-6.9943,-6.9976,-7.0037,-7.0137,-7.0213,-7.0209,-7.028,-7.0342,-7.0312,-7.0362,-7.0354,-7.0357,-7.0084,-7.0047,-7.0385,-7.0385,-7.0385,-7.0385,-7.0385,-7.0385,-6.9797,-6.9933,-6.9918,-7.0066,-7.0077,-7.0174,-7.0204,-7.0241,-7.0266,-7.0382,-7.0445,-7.0443,-7.0461,-7.0532,-7.06,-7.0596,-7.0624,-7.0686,-7.0671,-7.0414,-7.0377,-7.0342,-7.0306,-7.0694,-7.0694,-7.0936,-7.0939,-7.0941]},{"header":{"parameterUnit":"m.s-1","parameterCategory":1,"la1":30.2991,"la2":30.254,"lo1":-89.0895,"lo2":-89.0444,"dy":0.0017,"dx":0.0017,"nx":28,"ny":28,"refTime":"2023-09-21T03:00:00:Z","depth":0,"parameterNumber":3,"parameterNumberName":"V-component_of_WINDS"},"data":[0,0,0,0,0,0,0,0,0,0,0,0,0,0,0,0,0,0,0,0,0,0,0,0,0,0,0,0,0,0,0,0,0,0,0,0,0,0,0,0,0,0,0,0,0,0,0,0,0,0,0,0,0,0,0,0,0,0,-0.5955,-0.5954,0,-0.5919,-0.5919,-0.5918,-0.5945,-0.5946,-0.5947,-0.5948,-0.5908,-0.5906,-0.5904,0,0,0,0,0,0,0,0,0,0,0,0,0,-0.6041,-0.6039,-0.5955,-0.5954,-0.5954,-0.5919,-0.5919,-0.5918,-0.5945,-0.5946,-0.5948,-0.5949,-0.5909,-0.5906,-0.5904,0,0,0,0,0,0,0,0,0,0,0,0,0,-0.6004,-0.6039,-0.5955,-0.5963,-0.5963,-0.5919,-0.5919,-0.5918,-0.5944,-0.5946,-0.5948,-0.595,-0.591,-0.5907,-0.5903,-0.5848,0,0,-0.5893,-0.5892,0,0,0,0,0,0,0,0,-0.6006,-0.6001,-0.5962,-0.5962,-0.5963,-0.5938,-0.5934,-0.5894,-0.5944,-0.5952,-0.5948,-0.5951,-0.5916,-0.5913,-0.5902,-0.5846,-0.5844,-0.5893,-0.5891,-0.589,-0.5889,0,0,0,0,0,0,0,-0.6009,-0.6003,-0.594,-0.5962,-0.5962,-0.5967,-0.5964,-0.5927,-0.5924,-0.5951,-0.5953,-0.5949,-0.5917,-0.5905,-0.5901,-0.5844,-0.5893,-0.589,-0.5888,-0.5887,-0.5737,-0.5735,0,0,0,0,0,0,-0.6011,-0.6004,-0.5942,-0.5939,-0.5989,-0.5964,-0.596,-0.5944,-0.5925,-0.5924,-0.5947,-0.595,-0.591,-0.5905,-0.59,-0.5832,-0.589,-0.5887,-0.5885,-0.5739,-0.5737,-0.5734,0,0,0,0,0,0,-0.6013,-0.6005,-0.5943,-0.5972,-0.5965,-0.5961,-0.5942,-0.5943,-0.5931,-0.5922,-0.5921,-0.5936,-0.5911,-0.5905,-0.586,-0.5831,-0.5885,-0.5882,-0.5741,-0.5738,-0.5736,-0.5696,0,0,0,0,0,0,-0.6015,-0.6006,-0.5986,-0.5972,-0.5963,-0.5905,-0.5941,-0.5941,-0.5926,-0.5929,-0.5911,-0.591,-0.5912,-0.5865,-0.5857,-0.5827,-0.588,-0.5744,-0.574,-0.5736,-0.57,-0.5692,-0.5685,0,0,0,0,0,-0.6018,-0.5976,-0.5985,-0.5977,-0.5939,-0.5903,-0.5898,-0.5903,-0.5923,-0.5902,-0.5896,-0.591,-0.5836,-0.586,-0.5851,-0.582,-0.5746,-0.5741,-0.5737,-0.5703,-0.5693,-0.5685,0,0,0,0,0,0,-0.5985,-0.5974,-0.5984,-0.5936,-0.5921,-0.5908,-0.5882,-0.5893,-0.587,-0.5874,-0.588,-0.5875,-0.5828,-0.582,-0.5848,-0.5764,-0.5794,-0.5787,-0.5771,-0.5762,-0.5754,-0.5756,-0.5877,0,0,0,0,0,-0.5973,-0.5947,-0.5938,-0.5896,-0.5888,-0.5886,-0.5871,-0.5876,-0.5859,-0.5853,-0.5844,-0.5826,-0.5798,-0.578,-0.5754,-0.5699,-0.5694,-0.5673,-0.5666,-0.566,-0.5653,-0.5621,-0.5611,-0.5719,-0.5719,-0.572,0,0,-0.5946,-0.5937,-0.592,-0.5889,-0.5878,-0.5849,-0.588,-0.5849,-0.5827,-0.5848,-0.5805,-0.5797,-0.5778,-0.5727,-0.5704,-0.5719,-0.5622,-0.5654,-0.5649,-0.5646,-0.5615,-0.5605,-0.5596,-0.5716,-0.5717,-0.5717,0,0,-0.5882,-0.5873,-0.5837,-0.5825,-0.5807,-0.5806,-0.5797,-0.5783,-0.5779,-0.5736,-0.575,-0.5723,-0.5676,-0.5661,-0.5647,-0.5576,-0.5587,-0.5567,-0.5528,-0.5496,-0.5488,-0.548,-0.5452,-0.5442,-0.5561,-0.5561,-0.5561,0,-0.585,-0.5809,-0.5816,-0.5783,-0.5768,-0.5787,-0.5748,-0.5736,-0.571,-0.5698,-0.5716,-0.5655,-0.5644,-0.5589,-0.5571,-0.556,-0.5548,-0.5569,-0.5489,-0.5481,-0.5474,-0.5447,-0.5437,-0.5559,-0.5559,-0.5559,-0.556,0,-0.5769,-0.574,-0.5712,-0.5688,-0.567,-0.5634,-0.5634,-0.5615,-0.5621,-0.5617,-0.5572,-0.5559,-0.553,-0.5517,-0.5523,-0.5462,-0.5471,-0.5489,-0.5518,-0.5461,-0.5436,-0.5426,-0.5555,-0.5556,-0.5557,-0.5558,0,0,-0.5683,-0.5663,-0.5652,-0.564,-0.5622,-0.5598,-0.5563,-0.5535,-0.5517,-0.5499,-0.5467,-0.5426,-0.5442,-0.5426,-0.543,-0.5402,-0.5343,-0.5422,-0.5422,-0.5406,-0.5272,-0.5258,-0.5246,-0.5351,-0.5349,-0.5348,-0.5273,0,-0.5616,-0.5555,-0.556,-0.5502,-0.5473,-0.549,-0.5458,-0.5442,-0.5438,-0.5411,-0.5406,-0.5376,-0.54,-0.539,-0.5364,-0.5356,-0.5316,-0.5362,-0.5319,-0.5318,-0.5322,-0.5233,-0.5218,-0.5148,-0.5263,-0.5262,-0.5261,0,-0.553,-0.5509,-0.5448,-0.5432,-0.542,-0.5392,-0.5366,-0.5341,-0.5323,-0.5321,-0.5303,-0.5311,-0.5272,-0.5304,-0.525,-0.5281,-0.5264,-0.5257,-0.5254,-0.5249,-0.5284,-0.5223,-0.5126,-0.5115,-0.5246,-0.5247,-0.5248,0,-0.547,-0.5427,-0.5384,-0.5373,-0.5355,-0.5334,-0.5325,-0.5308,-0.5291,-0.5267,-0.5255,-0.5228,-0.5212,-0.5189,-0.5189,-0.5213,-0.5133,-0.5165,-0.5128,-0.5128,-0.5109,-0.511,-0.5006,-0.5102,-0.5102,-0.5102,-0.5102,0,-0.5394,-0.5355,-0.5356,-0.533,-0.5286,-0.5291,-0.5247,-0.524,-0.5225,-0.5196,-0.5209,-0.518,-0.5183,-0.5153,-0.5153,-0.5106,-0.5099,-0.5095,-0.5095,-0.5093,-0.5093,-0.508,-0.5084,-0.5099,-0.51,-0.51,-0.5101,0,-0.5319,-0.5319,-0.5272,-0.5258,-0.5254,-0.5222,-0.5209,-0.5182,-0.5179,-0.5142,-0.5133,-0.5127,-0.5093,-0.5091,-0.5052,-0.5051,-0.4994,-0.5,-0.5,-0.5,-0.4962,-0.4965,-0.4845,-0.4828,-0.4937,-0.4936,-0.4935,0,-0.5269,-0.5239,-0.5222,-0.5204,-0.5194,-0.5165,-0.5147,-0.515,-0.5131,-0.5107,-0.5082,-0.505,-0.5024,-0.4969,-0.496,-0.4929,-0.4934,-0.4894,-0.4929,-0.4927,-0.493,-0.4931,-0.4926,-0.4886,-0.4885,-0.4884,-0.4883,0,-0.518,-0.5181,-0.5155,-0.5129,-0.5107,-0.5086,-0.5067,-0.5051,-0.5052,-0.5029,-0.4995,-0.4975,-0.4935,-0.4902,-0.4872,-0.4861,-0.487,-0.4872,-0.4861,-0.4858,-0.4858,-0.4855,-0.4979,-0.4874,-0.4875,-0.4876,-0.4876,-0.4877,-0.5114,-0.5088,-0.5071,-0.5041,-0.5027,-0.5009,-0.4982,-0.4976,-0.4948,-0.4916,-0.492,-0.4882,-0.4862,-0.4823,-0.4809,-0.4778,-0.4791,-0.4776,-0.4772,-0.4767,-0.4762,-0.4865,-0.4772,-0.4773,-0.4773,-0.4773,-0.4773,0,-0.5023,-0.5013,-0.4986,-0.4959,-0.4935,-0.4948,-0.4927,-0.4906,-0.4872,-0.4854,-0.4828,-0.4788,-0.4755,-0.4743,-0.4711,-0.4688,-0.4692,-0.4679,-0.468,-0.4676,-0.4754,-0.4765,-0.4677,-0.4677,-0.4677,-0.4677,-0.4677,-0.4677,-0.4973,-0.4928,-0.4927,-0.4875,-0.4865,-0.4828,-0.4814,-0.4796,-0.4781,-0.4736,-0.471,-0.4703,-0.4686,-0.4652,-0.4622,-0.462,-0.4606,-0.4591,-0.459,-0.4662,-0.4671,-0.468,-0.4691,-0.4588,-0.4588,-0.4515,-0.4514,-0.4513]}]]